Location: Limerick
(52.6650°N, 8.6230°W)
Time: 19:21:22
(UTC+01:00)

ISS - Pass Details

Date: 22 May 2017
Orbit: 402 x 408 km, 51.6° (Epoch: 29 May)

Event Time Altitude Azimuth Distance (km) Brightness Sun altitude
Rises 04:13:04 0° 279° (W) 2,332 -0.3 -8.9°
Reaches altitude 10° 04:15:11 10° 274° (W) 1,468 -1.3 -8.7°
Maximum altitude 04:18:23 49° 199° (SSW) 536 -3.6 -8.4°
Drops below altitude 10° 04:21:33 10° 123° (ESE) 1,460 -0.9 -8.1°
Sets 04:23:39 0° 118° (ESE) 2,316 0.2 -7.9°
